Location: Altavilla Irpina
(41.0000°N, 14.7833°E)
Time: 07:09:43
(UTC+00:00)

Okean 3 Rocket - Pass Details

Date: 19 May 2025
Orbit: 611 x 638 km, 82.5° (Epoch: 21 June)

Event Time Altitude Azimuth Distance (km) Brightness Sun altitude
Rises 21:53:36 0° 353° (N) 2,900 8.2 -27.3°
Reaches altitude 10° 21:55:49 10° 355° (N) 1,993 7.1 -27.4°
Enters shadow 21:59:16 53° 10° (N) 770 4.2 -27.5°
